GEFSNGP_500_meanwind_018.txt.gz
Wind_Speed
50 54 56 59 60 61 65 69 73 73 72 69 68 65 61 59 56 50 45 42 39 38 38 39 42 43 43 41 38 35 32 30 28 27 26 25 23 23 23 25 29 32 35 37
54 57 61 65 65 67 72 74 74 74 69 64 61 57 54 53 50 44 41 38 36 35 36 38 40 41 41 39 37 34 32 30 28 27 26 24 22 22 22 23 24 26 29 31
58 61 65 66 70 72 75 73 72 70 63 60 56 53 52 51 47 42 39 36 35 34 35 37 38 40 40 39 37 34 32 31 28 27 26 24 22 21 20 21 22 24 25 28
62 66 65 71 72 74 74 68 68 62 58 55 53 51 50 48 43 40 37 34 33 33 35 36 38 40 40 39 38 35 33 31 29 28 26 24 23 21 20 20 21 23 24 26
64 67 68 74 74 73 72 64 64 58 53 50 49 47 44 41 39 37 35 34 34 34 36 37 39 40 41 40 38 36 34 32 30 29 28 26 24 22 21 21 22 23 24 25
65 68 71 76 75 72 69 58 56 51 49 49 48 47 43 40 38 36 35 34 34 35 36 38 40 41 42 41 40 38 36 34 32 31 30 29 27 25 24 24 24 24 25 26
67 69 72 76 74 70 61 57 53 48 48 47 46 45 43 41 39 38 36 36 36 36 37 39 41 42 42 42 41 40 38 36 34 33 32 31 30 29 28 28 28 28 28 28
68 70 71 74 70 64 56 50 48 48 48 46 44 43 41 40 39 38 37 37 37 38 39 41 43 44 44 44 43 41 39 38 36 34 33 33 32 32 32 32 32 32 32 33
68 70 72 70 64 57 51 47 46 46 46 45 43 42 41 40 39 39 39 39 39 40 42 44 45 46 45 45 44 42 40 38 37 36 35 34 34 34 33 34 35 36 37 37
69 71 70 67 61 53 48 46 46 47 46 44 43 42 41 40 40 40 40 41 42 43 45 47 48 48 47 47 46 44 42 40 38 37 36 36 35 35 36 36 37 38 39 41
69 72 70 65 59 51 46 45 46 47 46 44 42 41 41 41 41 42 43 44 46 47 49 49 50 49 49 49 48 47 45 43 41 40 39 38 38 38 38 38 39 40 41 43
70 72 69 63 56 49 45 45 46 46 45 42 41 41 42 43 44 45 46 48 49 51 52 52 52 52 52 52 51 50 48 47 46 45 44 43 43 43 42 42 42 43 44 45
70 70 65 59 52 48 45 45 45 45 43 41 40 41 43 45 46 48 50 52 53 54 55 55 55 55 55 55 55 54 53 52 51 51 50 50 50 49 49 49 49 49 49 50
71 69 62 55 49 46 44 44 43 43 41 40 41 43 45 47 50 52 53 55 56 56 57 58 58 59 59 58 58 57 57 56 56 55 55 55 56 56 57 57 57 57 58 58
69 64 58 52 47 45 43 42 41 40 40 41 43 45 47 50 53 55 55 56 57 58 59 60 59 59 58 57 56 55 54 53 52 52 52 52 53 54 56 57 59 60 62 64
65 58 52 47 44 42 40 39 39 39 40 43 45 48 51 53 55 55 56 57 58 59 58 56 55 53 51 50 49 48 47 46 45 43 42 42 42 42 43 45 47 50 54 57
59 52 46 42 40 39 37 37 38 40 42 45 48 51 53 54 54 56 58 58 57 54 51 48 47 45 45 44 43 43 42 41 39 38 37 36 35 34 33 33 33 34 37 39
53 46 40 38 37 36 36 37 39 42 45 48 50 52 53 53 55 57 56 52 48 44 42 42 41 41 42 42 42 42 42 41 40 39 38 37 36 35 33 32 31 30 30 30
45 39 36 35 35 36 37 40 42 45 48 50 51 52 53 55 56 52 46 41 38 37 37 38 39 41 42 43 44 44 44 44 43 42 41 39 38 36 35 34 33 32 31 30
38 34 33 34 35 38 40 43 45 48 49 50 51 52 54 53 48 40 35 34 33 34 35 37 40 42 44 45 46 47 47 46 45 44 42 41 40 39 38 36 35 34 33 32
34 32 33 34 37 40 43 45 47 48 49 50 51 53 51 44 36 32 30 30 31 34 36 39 41 44 46 47 49 49 49 49 48 47 45 44 43 42 41 39 37 35 34 33
32 32 33 36 39 41 44 47 48 48 49 51 51 48 41 33 28 26 27 29 32 35 38 41 43 46 48 50 51 52 52 52 51 51 50 49 48 46 43 41 38 35 33 31
31 32 34 37 40 42 45 47 47 48 49 50 47 39 32 26 23 24 27 29 32 36 39 42 45 47 50 52 54 55 56 56 57 56 54 52 50 48 45 42 37 33 30 28
31 33 35 38 40 43 45 46 47 48 48 46 39 31 23 21 22 23 27 30 33 37 40 43 46 49 51 54 56 58 60 60 60 58 56 54 52 50 47 43 37 32 27 24
31 33 36 38 41 43 45 45 46 47 45 39 30 22 18 19 21 24 27 31 34 37 40 43 46 49 52 55 58 60 62 62 61 60 58 55 53 51 48 44 38 32 26 21
32 34 36 38 40 42 44 44 44 43 39 31 22 17 16 18 22 25 28 31 34 37 39 42 45 49 52 55 58 61 62 62 62 60 59 57 55 53 51 47 42 36 30 24
32 34 36 38 40 41 42 42 42 38 31 22 16 14 16 18 22 25 28 31 33 36 39 42 45 48 52 55 57 60 62 62 63 63 63 62 61 58 55 52 48 44 40 35

GEFSNGP_500_meanwind_024.txt.gz
Wind_Speed
43 48 52 55 57 62 66 70 71 71 70 67 63 59 55 52 51 49 47 45 43 41 39 36 33 32 31 31 32 33 34 36 36 36 36 35 34 32 31 29 27 25 24 24
45 50 54 56 61 65 68 71 71 71 67 64 58 53 51 50 49 47 45 43 41 40 39 37 35 33 33 33 34 35 37 38 38 38 37 36 34 32 31 30 28 26 24 24
48 52 57 59 63 66 70 71 72 70 68 62 54 50 49 48 46 44 42 41 40 40 39 38 37 37 36 37 38 39 40 40 40 39 39 37 35 33 31 30 29 27 25 25
50 54 58 61 64 67 70 71 70 67 62 55 51 48 48 46 44 41 41 40 40 40 40 40 40 40 41 41 42 43 44 43 43 42 40 38 36 34 32 31 30 29 27 26
52 55 59 62 65 68 71 70 69 64 56 49 46 45 45 44 42 41 41 41 42 42 43 43 44 44 45 46 46 47 47 46 45 43 42 40 38 35 33 32 31 30 30 29
53 57 60 63 66 69 71 68 66 59 52 48 45 43 42 42 42 42 43 44 45 46 46 47 48 48 49 49 50 50 50 49 48 46 44 42 39 36 34 33 32 32 32 32
55 58 60 64 67 69 68 68 64 55 49 45 44 43 44 44 45 45 46 47 48 50 51 51 52 52 53 53 53 53 53 52 50 48 46 44 42 39 36 35 34 33 33 33
56 59 61 65 66 67 67 65 57 50 45 43 43 44 45 46 47 48 49 50 52 53 54 55 55 55 55 54 54 53 52 51 50 48 47 45 44 42 40 38 37 36 35 35
56 59 62 64 66 67 66 59 51 45 43 43 43 45 46 48 50 51 53 54 55 56 56 56 56 55 53 52 51 50 49 48 47 46 45 44 43 42 42 42 41 39 38 38
57 60 63 65 66 65 61 54 47 43 42 43 45 47 49 51 53 54 55 56 57 57 56 54 52 50 49 48 48 48 47 46 46 45 44 43 42 41 41 42 43 42 42 42
57 60 62 64 65 63 57 50 44 42 42 44 47 49 52 54 55 56 57 58 57 54 51 48 46 46 47 47 47 47 47 46 45 44 43 41 40 39 38 39 40 42 43 44
57 60 61 63 65 61 54 47 43 42 44 46 49 52 55 56 57 58 58 55 51 47 45 44 45 45 46 46 47 47 47 47 46 44 42 40 38 37 36 35 34 36 38 41
57 60 62 64 64 59 52 47 43 43 45 49 52 55 56 57 58 57 54 48 44 42 42 43 44 45 46 47 49 49 49 49 48 46 44 41 39 36 34 33 32 31 32 34
58 60 62 64 62 56 50 46 44 45 47 51 54 56 57 58 56 52 46 42 40 40 41 42 44 46 48 49 50 51 51 51 50 48 46 43 40 37 34 32 30 30 29 29
58 60 62 63 60 55 50 47 45 47 49 53 55 57 57 56 51 45 40 38 38 39 41 43 45 47 49 51 53 53 53 52 51 49 47 45 42 39 36 34 32 30 29 28
58 60 62 62 59 54 49 46 46 48 51 54 56 57 55 51 45 39 36 35 37 39 41 44 46 49 51 53 54 55 54 53 53 51 49 46 44 41 38 36 34 32 31 30
57 59 61 60 56 51 47 46 46 49 52 55 56 55 50 45 39 35 34 35 37 40 43 45 48 51 53 55 56 56 55 53 52 51 50 48 45 42 40 37 35 34 33 32
57 59 60 59 55 50 46 46 47 49 52 54 54 50 44 38 33 31 33 35 38 42 44 47 50 52 55 57 58 58 56 55 55 55 53 51 47 44 41 38 36 34 32 31
56 58 59 57 53 49 46 46 47 50 52 53 50 45 38 31 29 30 32 34 38 41 44 47 50 53 56 58 59 59 59 59 59 58 55 53 49 45 42 38 35 32 29 27
56 58 58 55 51 47 45 45 47 50 51 50 46 39 32 28 28 30 32 35 38 41 44 47 50 53 56 58 60 61 61 60 60 59 58 55 52 48 43 39 34 28 24 21
55 57 57 53 49 45 44 45 47 49 49 46 40 33 27 26 27 29 32 35 38 41 44 47 50 53 56 59 61 61 60 60 60 60 60 59 57 52 47 42 35 28 22 16
55 56 55 51 46 43 43 44 47 48 47 42 35 28 25 25 26 29 32 35 37 40 43 46 49 53 56 58 60 60 58 58 59 60 61 62 61 59 55 48 41 33 26 19
54 54 52 47 43 41 41 44 46 46 43 37 30 24 23 24 26 29 32 34 37 39 42 45 48 52 54 56 58 58 58 57 57 58 60 62 62 63 61 58 52 45 37 30
52 52 48 43 39 39 40 43 44 44 39 33 26 21 21 23 26 29 31 34 37 38 40 43 47 50 52 54 56 57 57 56 55 56 58 60 61 61 62 61 60 57 52 47
51 49 44 39 37 37 40 42 43 40 35 28 22 19 20 22 26 28 31 33 35 36 38 40 44 47 49 52 54 56 57 57 56 55 55 57 59 59 59 59 59 58 57 55
48 45 40 36 35 36 39 40 40 37 32 25 19 17 19 22 25 28 30 33 34 35 36 37 40 44 47 49 52 54 56 57 57 55 55 55 56 56 57 57 56 56 55 54
45 41 37 33 33 35 37 39 37 34 28 22 17 16 18 21 24 27 29 31 33 33 34 35 37 40 43 46 49 51 54 55 57 57 56 56 56 55 55 54 54 53 53 52

GEFSNGP_500_meanwind_030.txt.gz
Wind_Speed
35 39 41 45 49 53 57 61 64 67 69 72 72 69 63 58 53 50 50 51 53 54 55 55 56 56 55 55 55 54 52 51 50 50 49 48 48 47 47 46 44 43 42 41
35 39 42 46 51 55 59 63 65 68 70 72 70 66 60 55 52 51 52 54 56 57 58 58 58 57 57 56 55 54 53 52 51 50 49 49 48 48 47 47 46 45 44 42
38 41 45 48 54 58 61 64 67 68 70 72 69 63 59 54 52 53 55 58 59 60 60 60 60 58 56 54 52 50 49 49 48 48 47 47 46 46 45 45 45 44 44 43
40 44 48 52 56 60 63 65 68 69 71 71 68 62 57 54 54 55 58 60 61 61 60 59 57 54 51 50 49 49 49 49 49 48 47 46 45 44 44 43 42 42 42 42
42 46 50 54 58 62 65 66 68 70 71 69 66 60 55 54 55 58 60 62 62 60 59 56 53 50 49 49 50 50 50 49 49 48 47 46 45 43 42 40 40 39 39 40
43 48 53 56 60 64 66 67 69 70 70 68 64 59 56 56 57 60 62 61 60 58 54 50 49 48 48 49 49 50 51 51 50 49 48 47 45 43 40 38 37 36 36 37
45 50 54 59 63 65 66 68 69 70 69 66 62 58 58 58 60 61 61 59 57 53 50 48 47 47 48 50 51 53 53 53 52 51 50 48 46 43 41 38 35 33 33 34
48 52 56 60 63 65 66 68 69 69 68 64 60 57 58 59 60 60 59 56 52 49 47 46 47 48 50 52 54 55 55 55 54 53 51 49 47 45 42 39 36 33 31 31
48 52 57 60 63 65 66 67 68 69 66 62 58 57 58 59 60 59 57 52 48 45 45 47 49 51 52 54 55 56 56 55 54 53 52 51 49 46 43 40 37 33 31 29
50 54 58 61 63 65 66 67 69 68 65 60 57 57 58 59 58 56 53 48 44 44 45 48 50 52 54 56 57 57 57 56 55 54 52 51 50 48 45 41 38 34 31 29
51 55 58 61 63 65 66 67 68 66 62 58 57 57 58 58 56 52 48 44 43 44 46 49 52 54 55 57 58 58 57 56 56 55 54 53 51 50 47 43 40 35 31 28
51 56 59 61 63 64 66 67 67 64 60 57 56 57 57 56 53 48 44 42 43 45 47 50 53 55 57 58 59 58 57 56 57 57 56 56 54 51 48 45 40 36 32 29
52 56 59 61 63 64 65 66 65 62 58 56 56 57 56 53 49 44 42 41 43 45 48 51 53 56 57 59 59 58 57 57 59 59 59 59 58 55 48 42 38 35 31 28
53 56 59 61 62 63 64 64 63 60 57 56 56 56 54 50 46 42 40 41 43 46 49 51 54 56 57 59 59 58 57 57 59 60 61 62 62 59 52 43 35 30 27 25
53 56 58 60 61 62 63 63 62 58 56 55 55 54 51 47 43 40 39 41 44 46 48 51 53 56 58 59 59 58 56 57 59 61 63 64 64 62 55 46 37 28 23 21
53 56 58 59 60 61 62 62 60 57 54 54 54 52 49 44 41 39 39 41 43 45 47 50 53 56 58 58 59 58 57 57 59 62 64 65 65 63 59 51 41 30 22 17
53 56 58 58 59 60 61 61 58 55 53 53 52 50 46 42 39 38 40 42 44 45 47 49 52 55 57 58 59 58 57 58 59 61 63 65 66 65 62 57 48 37 28 20
53 56 57 58 58 59 60 59 56 53 52 52 51 48 44 40 38 37 39 41 43 45 46 48 51 53 57 58 58 59 59 59 60 60 61 63 66 66 64 62 56 47 37 28
54 55 56 57 57 58 58 57 54 52 51 50 49 46 42 39 37 37 38 40 41 42 43 45 48 51 55 57 58 59 59 59 60 59 59 61 63 64 64 63 61 58 51 42
54 55 55 56 56 57 57 55 53 50 49 49 47 44 40 37 36 37 38 39 40 41 41 42 46 49 52 55 57 58 59 59 59 59 59 59 60 61 63 63 62 60 57 54
53 54 54 54 55 55 55 53 51 49 48 47 45 42 38 36 35 35 37 39 39 39 39 41 44 47 50 53 56 57 57 58 58 59 59 59 59 59 59 60 60 59 58 57
53 53 53 53 53 54 53 51 49 47 46 45 43 40 37 34 34 34 36 37 38 37 37 38 41 45 48 51 53 55 56 56 57 58 59 59 59 59 58 57 57 57 56 56
52 52 52 51 52 52 52 49 47 45 44 43 42 39 35 33 33 33 34 36 36 36 36 37 39 42 45 48 50 52 54 55 55 56 58 58 59 59 58 57 56 54 53 53
51 51 50 50 50 50 49 47 45 43 42 41 40 37 34 31 31 31 33 34 35 35 35 35 37 39 42 45 47 49 51 53 54 55 56 57 58 58 58 57 56 55 53 52
50 49 49 49 49 48 47 45 43 41 40 40 38 36 32 30 29 30 31 32 33 34 34 34 35 37 39 42 44 46 48 50 52 53 54 55 56 56 57 57 56 56 55 53
49 48 47 47 47 47 45 43 41 39 38 38 37 34 31 28 27 28 29 30 32 33 33 34 34 35 36 39 41 44 46 48 49 50 52 52 53 54 55 55 56 55 55 54
47 46 46 46 45 45 43 41 38 37 36 36 35 33 29 27 25 26 27 29 30 31 32 33 34 34 35 36 38 40 43 45 47 48 49 50 51 52 53 54 54 54 54 54

GEFSNGP_500_meanwind_036.txt.gz
Wind_Speed
25 28 31 35 39 43 48 53 59 63 67 69 71 72 73 71 69 67 66 65 64 62 59 57 53 51 50 50 50 50 50 49 48 48 47 46 44 42 41 39 38 37 37 38
25 28 31 35 40 45 50 56 61 65 68 71 71 72 72 70 68 66 65 64 62 59 56 53 51 50 50 51 51 51 51 50 49 49 48 46 43 42 40 39 38 37 35 35
29 31 33 38 43 47 52 57 63 66 69 72 71 72 71 69 67 65 64 62 59 56 53 51 50 51 51 52 52 52 52 51 49 48 47 45 44 43 41 40 38 37 35 34
32 35 37 41 44 49 54 59 64 68 71 71 72 71 68 66 65 64 63 60 56 52 50 50 50 51 53 53 53 53 52 51 50 48 47 47 47 46 44 43 41 39 37 35
35 37 39 42 46 51 56 61 65 69 71 71 71 70 67 66 64 63 60 57 53 50 49 50 51 52 53 54 55 54 53 52 50 49 49 50 50 49 47 46 45 44 40 36
35 38 41 44 48 52 58 63 66 69 70 70 70 68 67 65 64 61 58 53 51 49 49 50 51 53 54 55 55 54 53 53 52 52 53 54 53 53 51 50 48 45 40 36
35 37 41 45 50 54 59 63 67 69 69 69 69 67 65 64 62 59 55 51 49 49 49 50 51 53 55 56 56 55 54 54 53 54 56 57 57 56 55 53 50 44 37 32
39 41 44 47 50 54 59 63 66 68 68 68 67 66 64 62 60 57 52 49 48 48 49 50 52 54 55 56 56 56 55 55 55 56 58 59 60 59 57 55 49 40 31 27
38 40 43 46 50 55 60 63 66 68 68 68 66 64 62 60 58 54 50 48 47 47 48 50 52 54 55 56 56 56 56 56 56 57 58 61 63 61 59 55 46 35 26 21
38 40 43 46 50 55 60 64 66 67 67 66 65 63 61 59 56 52 48 46 46 46 47 49 51 53 55 56 57 57 57 57 57 57 59 62 64 64 61 56 46 34 23 15
38 40 43 46 50 55 60 63 65 66 66 65 63 61 59 57 54 50 47 46 46 46 46 48 50 52 54 56 57 57 57 57 58 58 60 62 65 66 63 59 51 37 25 14
38 40 43 46 50 55 60 63 65 65 65 64 62 60 58 55 53 49 46 45 45 45 45 47 49 51 53 56 57 57 57 57 58 59 60 62 64 66 65 61 55 42 29 18
38 40 42 46 50 55 59 62 64 64 63 62 60 59 57 54 51 48 45 44 44 44 45 46 47 50 52 55 57 57 58 58 59 59 60 62 63 65 65 63 59 50 36 23
38 40 43 46 50 55 59 62 62 63 62 61 59 58 56 53 50 47 44 43 43 43 44 45 46 48 51 54 56 57 58 58 59 60 61 61 62 63 64 64 61 56 47 34
38 40 43 46 50 55 59 61 62 61 60 59 58 56 54 52 49 46 43 42 43 43 43 44 45 47 49 51 54 56 57 58 59 60 61 61 61 62 62 62 62 60 55 47
39 40 43 46 50 55 58 60 60 60 59 58 56 55 53 51 48 45 42 41 41 42 42 42 44 46 48 50 52 54 56 57 58 59 60 60 60 60 60 60 60 59 57 54
39 40 43 46 50 55 58 59 59 59 58 57 55 54 52 49 47 45 42 41 40 41 41 42 43 44 46 48 50 52 54 55 57 58 59 59 60 60 60 59 58 57 56 54
38 40 43 47 51 55 58 58 58 57 56 55 54 52 50 48 46 44 42 40 40 40 41 41 41 42 44 47 48 50 52 53 55 56 57 58 59 60 59 59 58 56 54 53
39 41 44 47 51 55 57 57 57 56 55 54 52 51 49 47 44 42 40 39 39 39 39 40 40 41 43 44 46 48 50 51 53 54 55 56 57 58 59 59 58 56 55 53
39 42 44 48 51 54 56 56 56 55 54 53 51 49 47 46 43 41 38 37 36 36 37 38 38 39 40 42 44 46 48 49 51 52 54 55 55 56 57 58 58 57 55 54
40 42 45 48 51 53 55 55 54 53 52 51 50 48 46 44 42 40 38 36 35 35 36 37 38 38 39 40 42 44 46 47 48 50 51 53 54 55 55 56 57 57 56 55
40 42 45 48 51 53 54 54 53 52 51 50 48 47 45 43 41 39 36 34 33 33 34 35 36 37 38 40 41 42 44 45 46 48 49 51 52 53 54 55 56 56 56 55
41 43 45 48 50 52 53 53 52 51 49 48 47 45 43 42 40 38 35 33 31 31 32 33 35 36 38 39 40 41 42 43 44 46 47 49 50 52 53 53 54 54 55 55
41 43 45 48 50 52 52 51 50 49 48 47 45 44 42 40 39 37 34 32 30 29 30 31 33 35 37 38 39 40 41 42 42 43 45 46 48 50 51 51 52 52 53 53
42 44 46 48 50 51 51 50 49 48 47 46 44 42 40 39 37 36 33 31 29 28 28 29 31 33 35 37 39 40 41 41 42 42 43 44 45 47 48 49 50 51 51 52
43 44 46 48 50 50 50 49 47 46 45 44 43 41 39 37 36 35 32 30 28 26 26 27 28 30 32 34 37 39 40 41 41 41 42 42 43 44 45 46 48 48 49 49
43 44 46 48 49 49 49 48 46 45 44 43 41 40 37 36 35 33 32 30 27 26 25 25 26 27 29 32 34 36 38 39 40 41 41 41 42 42 43 44 45 46 47 47